FW6259 Weather Reports


time (UTC)temp
F
wind
direction
speed
knots
gust
knots
rain 1hr
in
rain 24hr
in
rain mn
in
humidity
%
barometer
mb
20221203054553 -5 186 0.0 0.0 0.00 0.00 0.00 84 1039.6
20221203053101 -4 160 0.0 0.0 0.00 0.00 0.00 83 1039.4
20221203051555 -3 160 0.0 0.0 0.00 0.00 0.00 83 1039.6
20221203050054 -2 160 0.0 0.0 0.00 0.00 0.00 84 1039.5
20221203044504 -2 160 0.0 0.0 0.00 0.00 0.00 85 1039.4
20221203043052 -1 160 0.0 0.0 0.00 0.00 0.00 84 1039.2
20221203041509 -1 160 0.0 0.0 0.00 0.00 0.00 84 1039.1
20221203040053 0 209 0.0 0.0 0.00 0.00 0.00 85 1039.4
20221203034550 0 176 0.0 0.0 0.00 0.00 0.00 85 1039.6
20221203033001 0 176 0.0 0.0 0.00 0.00 0.00 84 1039.4
20221203031557 0 176 0.0 0.0 0.00 0.00 0.00 85 1039.3
20221203030000 1 176 0.0 0.0 0.00 0.00 0.00 86 1039.1
20221203024604 1 176 0.0 0.0 0.00 0.00 0.00 86 1039.3
20221203023002 1 176 0.0 0.0 0.00 0.00 0.00 86 1039.3
20221203021559 1 176 0.0 0.0 0.00 0.00 0.00 86 1039.2
20221203020051 1 236 0.0 0.0 0.00 0.00 0.00 86 1039.1
20221203014607 0 236 0.0 0.0 0.00 0.00 0.00 86 1039.2
20221203013050 0 236 0.0 0.0 0.00 0.00 0.00 85 1038.9
20221203011503 0 236 0.0 0.0 0.00 0.00 0.00 85 1039.4
20221203010051 1 215 0.0 0.0 0.00 0.00 0.00 85 1039.4
20221203004549 1 125 0.0 0.0 0.00 0.00 0.00 86 1039.2
20221203003058 1 66 0.0 0.0 0.00 0.00 0.00 86 1039.3
20221203001558 1 66 0.0 0.0 0.00 0.00 0.00 85 1039.3
20221203000003 1 72 0.0 0.0 0.00 0.00 0.00 85 1039.3
20221202234559 1 72 0.0 0.0 0.00 0.00 0.00 85 1039.3
20221202233046 1 72 0.0 0.9 0.00 0.00 0.00 85 1039.2
20221202231632 1 72 0.0 0.0 0.00 0.00 0.00 85 1039.5
20221202230049 0 72 0.0 0.0 0.00 0.00 0.00 85 1039.7
20221202224547 0 102 0.0 0.9 0.00 0.00 0.00 85 1039.9
20221202223056 0 127 0.0 0.9 0.00 0.00 0.00 85 1040.0
20221202221600 0 41 0.0 1.7 0.00 0.00 0.00 85 1039.9
20221202220001 0 3 0.0 0.9 0.00 0.00 0.00 85 1040.1
20221202214557 0 8 0.0 0.9 0.00 0.00 0.00 85 1040.0
20221202213004 -1 43 0.0 0.9 0.00 0.00 0.00 85 1040.0
20221202211603 -1 9 0.0 0.9 0.00 0.00 0.00 85 1040.1
20221202210049 -3 1 0.0 0.9 0.00 0.00 0.00 84 1040.0
20221202204613 -4 1 0.0 0.0 0.00 0.00 0.00 84 1040.3
20221202203056 -4 29 0.0 0.9 0.00 0.00 0.00 84 1040.2
20221202201548 -5 71 0.0 0.9 0.00 0.00 0.00 84 1040.1
20221202200055 -5 68 0.0 0.9 0.00 0.00 0.00 83 1040.1
20221202194553 -6 63 0.0 0.0 0.00 0.00 0.00 83 1040.1
20221202193001 -7 57 0.0 0.9 0.00 0.00 0.00 83 1040.1
20221202191556 -7 94 0.0 0.9 0.00 0.00 0.00 83 1039.7
20221202190003 -7 94 0.0 0.0 0.00 0.00 0.00 83 1039.6
20221202184555 -7 94 0.0 0.0 0.00 0.00 0.00 83 1039.7
20221202183053 -8 65 0.0 0.9 0.00 0.00 0.00 83 1039.6
20221202181640 -9 286 0.0 0.9 0.00 0.00 0.00 83 1039.5
20221202180050 -9 87 0.0 0.9 0.00 0.00 0.00 83 1039.4
20221202174501 -10 55 0.0 0.9 0.00 0.00 0.00 82 1039.5
20221202173059 -11 95 0.0 0.0 0.00 0.00 0.00 82 1039.4
20221202171507 -12 317 0.0 0.0 0.00 0.00 0.00 81 1039.5
20221202170107 -12 317 0.0 0.0 0.00 0.00 0.00 81 1039.5
20221202164549 -12 317 0.0 0.0 0.00 0.00 0.00 82 1039.5
20221202163057 -12 317 0.0 0.0 0.00 0.00 0.00 82 1039.7
20221202161557 -14 317 0.0 0.9 0.00 0.00 0.00 81 1039.9
20221202160045 -14 272 0.0 0.0 0.00 0.00 0.00 81 1039.7
20221202154612 -14 272 0.0 0.9 0.00 0.00 0.00 81 1039.6
20221202153051 -14 243 0.0 0.0 0.00 0.00 0.00 81 1039.6
20221202151600 -15 243 0.0 0.9 0.00 0.00 0.00 80 1039.1
20221202150053 -14 66 0.0 0.0 0.00 0.00 0.00 80 1039.3
20221202144549 -13 69 0.0 0.9 0.00 0.00 0.00 80 1038.8
20221202143058 -13 326 0.0 0.9 0.00 0.00 0.00 81 1039.0
20221202141554 -12 326 0.0 0.9 0.00 0.00 0.00 81 1039.2
20221202140003 -12 326 0.0 0.0 0.00 0.00 0.00 81 1038.7
20221202134553 -11 326 0.0 0.0 0.00 0.00 0.00 82 1038.7
20221202133046 -11 326 0.0 0.9 0.00 0.00 0.00 81 1039.1
20221202131603 -10 336 0.0 0.9 0.00 0.00 0.00 83 1038.8
20221202130055 -10 80 0.0 0.0 0.00 0.00 0.00 82 1038.5
20221202124504 -9 80 0.0 1.7 0.00 0.00 0.00 82 1038.5
20221202123053 -9 329 0.0 0.0 0.00 0.00 0.00 81 1038.5
20221202121506 -8 329 0.0 0.9 0.00 0.00 0.00 83 1038.7
20221202120100 -8 329 0.0 0.0 0.00 0.00 0.00 83 1038.2
20221202114558 -9 344 0.0 0.9 0.00 0.00 0.00 85 1038.0
20221202113050 -11 352 0.0 0.0 0.00 0.00 0.00 82 1038.1
20221202111600 -10 352 0.0 0.0 0.00 0.00 0.00 84 1038.1
20221202110047 -12 352 0.0 0.0 0.00 0.00 0.00 80 1038.1
20221202104502 -12 326 0.0 0.0 0.00 0.00 0.00 81 1038.2
20221202103050 -10 326 0.0 0.0 0.00 0.00 0.00 81 1038.1
20221202101505 -9 326 0.0 0.0 0.00 0.00 0.00 83 1038.2
20221202100056 -7 326 0.0 0.0 0.00 0.00 0.00 84 1038.2
20221202094552 -8 326 0.0 0.9 0.00 0.00 0.00 86 1038.4
20221202093009 -10 335 0.0 0.0 0.00 0.00 0.00 83 1038.2
20221202091602 -9 335 0.0 0.0 0.00 0.00 0.00 82 1038.1
20221202090102 -9 336 0.0 0.0 0.00 0.00 0.00 84 1038.0
20221202084602 -8 335 0.0 0.0 0.00 0.00 0.00 83 1037.5
20221202083056 -6 335 0.0 0.0 0.00 0.00 0.00 83 1037.5
20221202081550 -5 336 0.0 0.0 0.00 0.00 0.00 83 1037.3
20221202080043 -6 336 0.0 0.0 0.00 0.00 0.00 82 1037.3
20221202074559 -4 336 0.0 0.0 0.00 0.00 0.00 84 1036.9
20221202073056 -3 336 0.0 0.0 0.00 0.00 0.00 80 1037.0
20221202071551 -1 336 0.0 0.0 0.00 0.00 0.00 83 1036.9
20221202070057 0 38 0.0 0.0 0.00 0.00 0.00 83 1036.8
20221202064552 2 38 0.0 0.0 0.00 0.00 0.00 82 1036.7
20221202063049 4 360 0.0 0.9 0.00 0.00 0.00 82 1036.7
20221202061502 4 340 0.0 2.6 0.00 0.00 0.00 83 1036.7
20221202060056 5 353 0.0 0.9 0.00 0.00 0.00 83 1036.7